Burbank, CA

3:02 PM PDT on September 23, 2017 (GMT -0700)
Burbank-Glendale-Pasadena

Weather History for KBUR - February, 2013

Change the Weather History Date:

Tuesday, February 5, 2013

  Actual Average Record
Temperature  
Mean Temperature 55 °F 55 °F  
Max Temperature 60 °F 68 °F 87 °F (1995)
Min Temperature 49 °F 43 °F 31 °F (1985)
Degree Days  
Heating Degree Days 10 10  
Month to date heating degree days 20 50  
Since 1 July heating degree days 799 933  
Cooling Degree Days 0 0  
Month to date cooling degree days 2 0  
Year to date cooling degree days 2 2  
Growing Degree Days 4 (Base 50)    
Moisture  
Dew Point 48 °F    
Average Humidity 78    
Maximum Humidity 89    
Minimum Humidity 67    
Precipitation  
Precipitation 0.00 in 0.14 in 1.46 in (2009)
Month to date precipitation T 0.70  
Year to date precipitation 0.77 4.23  
Since 1 July precipitation 3.57  
Sea Level Pressure  
Sea Level Pressure 30.01 in    
Wind  
Wind Speed 3 mph (SSE)    
Max Wind Speed 12 mph    
Max Gust Speed 13 mph    
Visibility 3 miles    
Events      
T = Trace of Precipitation, MM = Missing Value Source: NWS Daily Summary

Daily Weather History Graph

Daily Weather History Graph

Search for Another Location

Airport or City:

Trip Planner

Search our weather history database for the weather conditions in past years. The results will help you decide how hot, cold, wet, or windy it might be!

Date:

Astronomy

Feb. 05, 2013 Rise Set
Actual Time 6:47 AM PST 5:27 PM PST
Civil Twilight 6:21 AM PST 5:54 PM PST
Nautical Twilight 5:51 AM PST 6:23 PM PST
Astronomical Twilight 5:22 AM PST 6:53 PM PST
Moon 2:29 AM PST (2/5) 12:55 PM PST (2/5)
Length of Visible Light 11h 32m
Length of Day
10h 40m
Waning Crescent, 25% of the Moon is Illuminated
Feb 5
Waning Crescent
Feb 9
New
Feb 17
First Quarter
Feb 25
Full
Mar 4
Last Quarter

Hourly Weather History & Observations

Time (PST) Temp. Dew Point Humidity Pressure Visibility Wind Dir Wind Speed Gust Speed Precip Events Conditions
12:22 AM 51.8 °F 48.2 °F 88% 30.06 in 2.0 mi SSE 3.5 mph - N/A   Overcast
12:30 AM 51.8 °F 48.2 °F 88% 30.06 in 1.5 mi SE 4.6 mph - N/A   Overcast
12:48 AM 51.8 °F 48.2 °F 88% 30.05 in 2.0 mi East 5.8 mph - N/A   Overcast
12:53 AM 52.0 °F 48.9 °F 89% 30.03 in 2.5 mi ESE 5.8 mph - N/A   Overcast
1:53 AM 51.1 °F 48.9 °F 92% 30.02 in 2.5 mi East 3.5 mph - N/A   Overcast
2:53 AM 51.1 °F 46.9 °F 86% 30.00 in 2.5 mi Calm Calm - N/A   Overcast
3:53 AM 48.9 °F 45.0 °F 86% 30.00 in 2.5 mi NNW 4.6 mph - N/A   Overcast
4:53 AM 48.9 °F 45.0 °F 86% 29.99 in 2.5 mi Calm Calm - N/A   Overcast
5:53 AM 48.9 °F 45.0 °F 86% 30.00 in 2.5 mi North 5.8 mph - N/A   Overcast
6:53 AM 48.9 °F 45.0 °F 86% 30.03 in 2.5 mi North 3.5 mph - N/A   Overcast
7:53 AM 48.9 °F 45.0 °F 86% 30.04 in 2.5 mi North 8.1 mph - N/A   Overcast
8:53 AM 51.1 °F 46.0 °F 83% 30.06 in 2.5 mi Calm Calm - N/A   Haze
9:53 AM 52.0 °F 46.9 °F 83% 30.07 in 2.5 mi Calm Calm - N/A   Haze
10:53 AM 54.0 °F 48.0 °F 80% 30.07 in 3.0 mi South 3.5 mph - N/A   Haze
11:53 AM 55.0 °F 48.0 °F 77% 30.05 in 2.5 mi South 6.9 mph - N/A   Haze
12:53 PM 55.0 °F 48.0 °F 77% 30.02 in 2.5 mi Calm Calm - N/A   Haze
1:53 PM 57.0 °F 48.0 °F 72% 29.98 in 2.5 mi Calm Calm - N/A   Haze
2:53 PM 59.0 °F 48.0 °F 67% 29.96 in 2.5 mi Calm Calm - N/A   Haze
3:53 PM 59.0 °F 48.0 °F 67% 29.97 in 2.5 mi South 6.9 mph - N/A   Haze
4:53 PM 57.0 °F 48.0 °F 72% 29.97 in 2.5 mi South 4.6 mph - N/A   Haze
4:57 PM 55.4 °F 48.2 °F 77% 29.99 in 3.0 mi South 4.6 mph - N/A   Haze
5:53 PM 55.0 °F 46.9 °F 74% 29.97 in 3.0 mi SSW 3.5 mph - N/A   Haze
6:53 PM 53.1 °F 48.0 °F 83% 29.98 in 5.0 mi SSW 4.6 mph - N/A   Haze
7:24 PM 51.8 °F 48.2 °F 88% 30.01 in 5.0 mi South 3.5 mph - N/A   Mostly Cloudy
7:29 PM 53.6 °F 48.2 °F 82% 30.01 in 5.0 mi South 4.6 mph - N/A   Haze
7:53 PM 52.0 °F 48.0 °F 86% 30.00 in 5.0 mi SSE 3.5 mph - N/A   Overcast
7:58 PM 53.6 °F 48.2 °F 82% 30.01 in 5.0 mi SE 4.6 mph - N/A   Haze
8:32 PM 53.6 °F 48.2 °F 82% 30.03 in 5.0 mi WSW 5.8 mph - N/A   Haze
8:53 PM 53.1 °F 48.0 °F 83% 30.01 in 5.0 mi South 5.8 mph - N/A   Haze
9:53 PM 53.1 °F 48.9 °F 86% 30.01 in 5.0 mi SSW 4.6 mph - N/A   Overcast
10:53 PM 53.1 °F 48.0 °F 83% 30.00 in 5.0 mi Calm Calm - N/A   Haze
11:53 PM 53.1 °F 48.0 °F 83% 30.00 in 6.0 mi Calm Calm - N/A   Haze